South Hill, VA

7:49 PM EST on November 17, 2019 (GMT -0500)
Mecklenburg-Brunswick Regional

Weather History for KAVC - August, 2019

Change the Weather History Date:

Thursday, August 1, 2019

  Actual Average (KEMV) Record (KEMV)
Temperature  
Mean Temperature 76 °F -  
Max Temperature 89 °F 88 °F 97 °F (1983)
Min Temperature 63 °F 65 °F 55 °F (2017)
Cooling Degree Days 11    
Growing Degree Days 26 (Base 50)    
Moisture  
Dew Point 69 °F    
Average Humidity 80    
Maximum Humidity 100    
Minimum Humidity 51    
Precipitation  
Precipitation 0.00 in - - ()
Sea Level Pressure  
Sea Level Pressure 30.14 in    
Wind  
Wind Speed 1 mph (South)    
Max Wind Speed 8 mph    
Max Gust Speed -    
Visibility 10 miles    
Events      
Averages and records for this station are not official NWS values.
T = Trace of Precipitation, MM = Missing Value Source: NWS Daily Summary

Daily Weather History Graph

Daily Weather History Graph

Search for Another Location

Airport or City:

Astronomy

Aug. 01, 2019 Rise Set
Actual Time 6:17 AM EDT 8:18 PM EDT
Civil Twilight 5:49 AM EDT 8:47 PM EDT
Nautical Twilight 5:14 AM EDT 9:21 PM EDT
Astronomical Twilight 4:36 AM EDT 9:59 PM EDT
Moon 6:40 AM EDT (8/1) 9:04 PM EDT (8/1)
Length of Visible Light 14h 57m
Length of Day
14h 00m
New Moon, 0% of the Moon is Illuminated
Aug 1
New Moon
Aug 7
First Quarter
Aug 15
Full
Aug 23
Last Quarter
Aug 30
New

Hourly Weather History & Observations

Time (EDT) Temp. Heat Index Dew Point Humidity Pressure Visibility Wind Dir Wind Speed Gust Speed Precip Events Conditions
12:15 AM 67.8 °F - 67.8 °F 100% 30.11 in 10.0 mi NNW 4.6 mph - N/A   Clear
12:35 AM 67.8 °F - 67.8 °F 100% 30.12 in 10.0 mi Calm Calm - N/A   Clear
12:55 AM 67.3 °F - 67.3 °F 100% 30.14 in 10.0 mi Calm Calm - N/A   Scattered Clouds
1:15 AM 67.1 °F - 67.1 °F 100% 30.15 in 10.0 mi Calm Calm - N/A   Scattered Clouds
1:35 AM 66.6 °F - 66.6 °F 100% 30.16 in 10.0 mi Calm Calm - N/A   Scattered Clouds
1:55 AM 66.6 °F - 66.6 °F 100% 30.17 in 10.0 mi North 3.5 mph - N/A   Scattered Clouds
2:15 AM 66.2 °F - 66.2 °F 100% 30.16 in 10.0 mi Calm Calm - N/A   Mostly Cloudy
2:35 AM 66.6 °F - 66.6 °F 100% 30.16 in 10.0 mi Calm Calm - N/A   Overcast
2:55 AM 66.2 °F - 66.2 °F 100% 30.16 in 10.0 mi Calm Calm - N/A   Overcast
3:15 AM 66.4 °F - 66.4 °F 100% 30.15 in 10.0 mi Calm Calm - N/A   Mostly Cloudy
3:35 AM 65.7 °F - 65.7 °F 100% 30.14 in 10.0 mi Calm Calm - N/A   Clear
3:55 AM 65.1 °F - 65.1 °F 100% 30.14 in 10.0 mi Calm Calm - N/A   Clear
4:15 AM 64.9 °F - 64.9 °F 100% 30.14 in 10.0 mi Calm Calm - N/A   Clear
4:35 AM 65.3 °F - 65.3 °F 100% 30.12 in 10.0 mi Calm Calm - N/A   Clear
4:55 AM 65.3 °F - 65.3 °F 100% 30.13 in 10.0 mi Calm Calm - N/A   Clear
5:15 AM 64.6 °F - 64.6 °F 100% 30.12 in 10.0 mi Calm Calm - N/A   Clear
5:35 AM 63.9 °F - 63.9 °F 100% 30.12 in 10.0 mi Calm Calm - N/A   Clear
5:55 AM 64.6 °F - 64.6 °F 100% 30.13 in 10.0 mi North 3.5 mph - N/A   Clear
6:15 AM 65.1 °F - 65.1 °F 100% 30.13 in 10.0 mi Calm Calm - N/A   Clear
6:35 AM 64.9 °F - 64.9 °F 100% 30.13 in 10.0 mi Calm Calm - N/A   Clear
6:55 AM 65.8 °F - 65.8 °F 100% 30.14 in 10.0 mi Calm Calm - N/A   Clear
7:15 AM 66.0 °F - 66.0 °F 100% 30.14 in 10.0 mi Calm Calm - N/A   Clear
7:35 AM 67.3 °F - 67.3 °F 100% 30.15 in 10.0 mi North 3.5 mph - N/A   Clear
7:55 AM 68.7 °F - 68.5 °F 99% 30.15 in 10.0 mi Calm Calm - N/A   Clear
8:15 AM 68.9 °F - 68.9 °F 100% 30.16 in 10.0 mi Calm Calm - N/A   Clear
8:35 AM 71.2 °F - 69.6 °F 95% 30.16 in 10.0 mi Calm Calm - N/A   Clear
8:55 AM 74.1 °F - 71.1 °F 90% 30.16 in 10.0 mi Calm Calm - N/A   Clear
9:15 AM 75.9 °F - 71.6 °F 86% 30.16 in 10.0 mi Calm Calm - N/A   Clear
9:35 AM 77.4 °F - 71.8 °F 83% 30.17 in 10.0 mi Calm Calm - N/A   Clear
9:55 AM 78.4 °F - 70.7 °F 77% 30.17 in 10.0 mi Calm Calm - N/A   Clear
10:15 AM 79.9 °F - 71.2 °F 75% 30.17 in 10.0 mi SW 3.5 mph - N/A   Clear
10:35 AM 80.8 °F 84.6 °F 71.1 °F 72% 30.17 in 10.0 mi Calm Calm - N/A   Clear
10:55 AM 82.2 °F 85.8 °F 69.4 °F 65% 30.17 in 10.0 mi Calm Calm - N/A   Clear
11:15 AM 82.6 °F 86.1 °F 69.3 °F 64% 30.18 in 10.0 mi Calm Calm - N/A   Clear
11:35 AM 83.3 °F 86.9 °F 69.3 °F 62% 30.18 in 10.0 mi Calm Calm - N/A   Clear
11:55 AM 83.8 °F 87.3 °F 68.5 °F 60% 30.18 in 10.0 mi SW 3.5 mph - N/A   Clear
12:15 PM 84.4 °F 89.0 °F 70.3 °F 63% 30.18 in 10.0 mi Calm Calm - N/A   Clear
12:35 PM 85.3 °F 89.4 °F 69.6 °F 59% 30.18 in 10.0 mi West 3.5 mph - N/A   Clear
12:55 PM 85.5 °F 88.8 °F 68.4 °F 56% 30.17 in 10.0 mi Calm Calm - N/A   Clear
1:15 PM 85.6 °F 90.1 °F 69.8 °F 59% 30.17 in 10.0 mi Calm Calm - N/A   Clear
1:35 PM 86.4 °F 91.4 °F 70.5 °F 59% 30.17 in 10.0 mi Calm Calm - N/A   Clear
1:55 PM 87.6 °F 92.7 °F 70.2 °F 56% 30.16 in 10.0 mi SSW 4.6 mph - N/A   Clear
2:15 PM 87.3 °F 91.6 °F 69.4 °F 55% 30.15 in 10.0 mi Calm Calm - N/A   Clear
2:35 PM 88.7 °F 94.3 °F 70.7 °F 55% 30.14 in 10.0 mi NW 3.5 mph - N/A   Clear
2:55 PM 87.6 °F 93.5 °F 71.1 °F 58% 30.14 in 10.0 mi SW 4.6 mph - N/A   Clear
3:20 PM 88.7 °F 93.5 °F 69.4 °F 53% 30.12 in 10.0 mi Calm Calm - N/A   Clear
3:35 PM 88.2 °F 93.7 °F 70.9 °F 56% 30.12 in 10.0 mi SE 3.5 mph - N/A   Scattered Clouds
3:55 PM 88.2 °F 92.9 °F 69.4 °F 54% 30.11 in 10.0 mi Calm Calm - N/A   Scattered Clouds
4:15 PM 87.8 °F 91.8 °F 68.5 °F 53% 30.11 in 10.0 mi East 3.5 mph - N/A   Clear
4:35 PM 89.4 °F 94.0 °F 69.3 °F 51% 30.10 in 10.0 mi West 3.5 mph - N/A   Scattered Clouds
4:55 PM 87.8 °F 93.4 °F 70.7 °F 57% 30.09 in 10.0 mi SE 3.5 mph - N/A   Scattered Clouds
5:15 PM 87.8 °F 92.6 °F 69.8 °F 55% 30.09 in 10.0 mi ESE 3.5 mph - N/A   Mostly Cloudy
5:35 PM 87.8 °F 92.6 °F 69.6 °F 55% 30.08 in 10.0 mi SSE 3.5 mph - N/A   Scattered Clouds
5:55 PM 87.3 °F 92.0 °F 70.0 °F 56% 30.08 in 10.0 mi Calm Calm - N/A   Clear
6:15 PM 86.0 °F 91.1 °F 70.9 °F 60% 30.09 in 10.0 mi Calm Calm - N/A   Clear
6:35 PM 84.6 °F 91.4 °F 73.2 °F 69% 30.08 in 10.0 mi Calm Calm - N/A   Clear
6:55 PM 84.4 °F 90.6 °F 72.9 °F 68% 30.10 in 10.0 mi Calm Calm - N/A   Scattered Clouds
7:15 PM 82.6 °F 88.3 °F 73.2 °F 73% 30.10 in 10.0 mi Calm Calm - N/A   Mostly Cloudy
7:35 PM 81.0 °F 86.7 °F 75.0 °F 82% 30.11 in 10.0 mi SSE 3.5 mph - N/A   Scattered Clouds
7:55 PM 81.3 °F 87.0 °F 74.1 °F 79% 30.12 in 10.0 mi Calm Calm - N/A   Scattered Clouds
8:15 PM 79.7 °F - 74.7 °F 84% 30.12 in 10.0 mi Calm Calm - N/A   Clear
8:35 PM 79.9 °F - 73.2 °F 80% 30.12 in 10.0 mi SSE 5.8 mph - N/A   Clear
8:55 PM 79.2 °F - 72.5 °F 80% 30.13 in 10.0 mi SSE 5.8 mph - N/A   Clear
9:15 PM 78.1 °F - 72.7 °F 83% 30.13 in 10.0 mi Calm Calm - N/A   Clear
9:35 PM 77.2 °F - 72.0 °F 84% 30.13 in 10.0 mi SSE 3.5 mph - N/A   Clear
9:55 PM 76.3 °F - 72.5 °F 88% 30.13 in 10.0 mi South 3.5 mph - N/A   Clear
10:15 PM 75.2 °F - 72.5 °F 91% 30.13 in 10.0 mi South 3.5 mph - N/A   Clear
10:35 PM 74.7 °F - 72.5 °F 93% 30.14 in 10.0 mi South 3.5 mph - N/A   Clear
10:55 PM 75.0 °F - 72.0 °F 90% 30.14 in 10.0 mi SSE 3.5 mph - N/A   Clear
11:15 PM 74.8 °F - 71.1 °F 88% 30.14 in 10.0 mi South 8.1 mph - N/A   Clear
11:35 PM 75.2 °F - 69.8 °F 83% 30.14 in 10.0 mi SSE 3.5 mph - N/A   Clear